FW5266 Weather Reports


time (UTC)temp
F
wind
direction
speed
knots
gust
knots
rain 1hr
in
rain 24hr
in
rain mn
in
humidity
%
barometer
mb
20260507223031 72 352 9.6 16.5 0.00 0.00 0.00 31 1021.1
20260507221541 72 355 10.4 14.8 0.00 0.00 0.00 31 1021.3
20260507220111 71 340 8.7 14.8 0.00 0.00 0.00 32 1021.4
20260507214535 70 350 7.8 12.2 0.00 0.00 0.00 33 1021.6
20260507211545 70 20 7.0 11.3 0.00 0.00 0.00 34 1021.8
20260507210037 69 30 6.1 13.9 0.00 0.00 0.00 35 1022.0
20260507204529 69 356 6.1 10.4 0.00 0.00 0.00 36 1022.2
20260507203110 69 352 4.3 9.6 0.00 0.00 0.00 37 1022.3
20260507201535 69 1 1.7 8.7 0.00 0.00 0.00 38 1022.5
20260507200031 69 353 3.5 8.7 0.00 0.00 0.00 38 1022.7
20260507194536 68 7 4.3 9.6 0.00 0.00 0.00 39 1022.7
20260507193107 67 346 6.1 10.4 0.00 0.00 0.00 42 1022.8
20260507191530 66 17 5.2 12.2 0.00 0.00 0.00 44 1022.9
20260507190029 66 9 4.3 10.4 0.00 0.00 0.00 44 1023.1
20260507183041 63 4 4.3 9.6 0.00 0.00 0.00 52 1023.4
20260507181530 62 2 5.2 9.6 0.00 0.00 0.00 54 1023.5
20260507180033 62 21 7.0 12.2 0.00 0.00 0.00 55 1023.6
20260507174530 62 11 6.1 11.3 0.00 0.00 0.00 55 1023.6
20260507173029 62 2 6.1 12.2 0.00 0.00 0.00 55 1023.7
20260507171605 63 355 7.8 13.0 0.00 0.00 0.00 56 1023.8
20260507170037 64 10 7.8 11.3 0.00 0.00 0.00 55 1023.7
20260507164610 63 329 4.3 9.6 0.00 0.00 0.00 56 1023.7
20260507163033 62 239 3.5 7.8 0.00 0.00 0.00 60 1023.6
20260507161539 61 250 4.3 7.8 0.00 0.00 0.00 63 1023.8
20260507154543 57 253 2.6 5.2 0.00 0.00 0.00 70 1024.2
20260507151532 55 302 0.9 3.5 0.00 0.00 0.00 75 1024.5
20260507150150 54 306 0.9 4.3 0.00 0.00 0.00 79 1024.5
20260507144610 53 317 0.0 2.6 0.00 0.00 0.00 85 1024.6
20260507143031 51 24 0.0 1.7 0.00 0.00 0.00 87 1024.5
20260507141607 48 63 1.7 2.6 0.00 0.00 0.00 89 1024.3
20260507140035 47 90 1.7 3.5 0.00 0.00 0.00 90 1024.2
20260507134608 46 99 1.7 3.5 0.00 0.00 0.00 89 1024.1
20260507130105 46 89 6.1 7.8 0.00 0.00 0.00 88 1024.0
20260507121537 48 61 5.2 8.7 0.00 0.00 0.00 87 1023.8
20260507120029 48 58 5.2 8.7 0.00 0.00 0.00 86 1023.7
20260507114534 48 55 4.3 7.8 0.00 0.00 0.00 86 1023.6
20260507113044 48 61 5.2 9.6 0.00 0.00 0.00 85 1023.5
20260507111549 49 79 4.3 7.8 0.00 0.00 0.00 83 1023.4
20260507110105 50 92 4.3 7.0 0.00 0.00 0.00 83 1023.5
20260507104532 50 50 6.1 9.6 0.00 0.00 0.00 82 1023.3
20260507103042 51 62 7.0 9.6 0.00 0.00 0.00 80 1023.2
20260507100043 52 51 5.2 10.4 0.00 0.00 0.00 76 1023.3
20260507093034 53 105 1.7 3.5 0.00 0.00 0.00 73 1023.3
20260507091530 53 222 0.9 4.3 0.00 0.00 0.00 72 1023.3
20260507090042 55 2 3.5 7.0 0.00 0.00 0.00 69 1023.3
20260507090033 56 333 7.0 11.3 0.00 0.00 0.00 65 1023.3
20260507083033 55 316 7.0 11.3 0.00 0.00 0.00 69 1023.4
20260507073031 60 306 7.8 12.2 0.00 0.00 0.00 54 1023.1
20260507071533 61 285 10.4 16.5 0.00 0.00 0.00 54 1023.1
20260507070030 60 282 9.6 15.6 0.00 0.00 0.00 56 1023.2
20260507064538 58 284 9.6 16.5 0.00 0.00 0.00 63 1023.4
20260507061611 57 356 4.3 9.6 0.00 0.00 0.00 63 1023.7
20260507060106 58 29 6.1 8.7 0.00 0.00 0.00 60 1023.7
20260507054530 59 45 7.8 9.6 0.00 0.00 0.00 56 1023.7
20260507051607 61 319 5.2 11.3 0.00 0.00 0.00 50 1023.8
20260507050030 62 270 8.7 15.6 0.00 0.00 0.00 49 1023.8
20260507044530 62 275 8.7 13.9 0.00 0.00 0.00 48 1023.9
20260507043029 62 271 8.7 13.9 0.00 0.00 0.00 48 1023.9
20260507041531 62 274 7.8 15.6 0.00 0.00 0.00 49 1023.9
20260507040039 63 280 7.8 13.9 0.00 0.00 0.00 48 1023.7
20260507034532 63 279 8.7 16.5 0.00 0.00 0.00 47 1023.7
20260507033108 64 286 11.3 17.4 0.00 0.00 0.00 47 1023.4
20260507030032 65 281 9.6 16.5 0.00 0.00 0.00 46 1023.4
20260507024607 66 292 8.7 18.2 0.00 0.00 0.00 45 1023.2
20260507023031 66 296 13.9 22.6 0.00 0.00 0.00 44 1023.0
20260507021544 67 289 11.3 20.9 0.00 0.00 0.00 44 1023.1
20260507020103 67 318 7.8 14.8 0.00 0.00 0.00 45 1023.1
20260507013107 68 346 6.1 9.6 0.00 0.00 0.00 43 1022.9
20260507011604 69 338 7.0 13.0 0.00 0.00 0.00 42 1022.8
20260507010031 70 330 7.8 14.8 0.00 0.00 0.00 41 1022.6
20260507004530 71 321 8.7 14.8 0.00 0.00 0.00 40 1022.5
20260507003032 71 301 10.4 17.4 0.00 0.00 0.00 39 1022.3
20260507001531 72 293 10.4 16.5 0.00 0.00 0.00 39 1022.1
20260506233029 75 294 12.2 21.7 0.00 0.00 0.00 35 1021.9
20260506231530 76 299 13.0 20.0 0.00 0.00 0.00 35 1021.9
20260506230047 76 289 13.0 20.9 0.00 0.00 0.00 35 1022.0
20260506224532 76 287 13.9 22.6 0.00 0.00 0.00 35 1022.3